When you browse on this site, cookies collect data to enhance your experience and personalize the content and advertising you see.
Visit our Privacy Policy to learn more. By continuing to use the site, you agree to this use of cookies and data.
  • In Hungary
  • List of Countries
  • For 7 days
  • Water Temperature
  • Weather Map
  • News
  • Weather Widgets
  • user-avatar
    Login

    Hourly Weather Mahtaly

    Today, 7 December, Saturday

    Time Temperature Precipitation Wind Pressure Humidity
    00:00 +5°C° 0 mm 1 mps 731 mmHg 88%
    01:00 +5°C° 0 mm 1 mps 731 mmHg 88%
    02:00 +5°C° 0 mm 1 mps 731 mmHg 88%
    03:00 +5°C° 0 mm 1 mps 731 mmHg 86%
    04:00 +5°C° 0 mm 1 mps 730 mmHg 85%
    05:00 +5°C° 0 mm 1 mps 730 mmHg 83%
    06:00 +5°C° 0 mm 1 mps 730 mmHg 81%
    07:00 +5°C° 0 mm 1 mps 730 mmHg 78%
    08:00 +5°C° 0 mm 1 mps 730 mmHg 76%
    09:00 +7°C° 0 mm 1 mps 730 mmHg 73%
    10:00 +8°C° 0 mm 1 mps 730 mmHg 69%
    11:00 +10°C° 0 mm 1 mps 730 mmHg 65%
    12:00 +10°C° 0 mm 1 mps 730 mmHg 63%
    13:00 +11°C° 0 mm 1 mps 729 mmHg 62%
    14:00 +12°C° 0 mm 1 mps 729 mmHg 61%
    15:00 +10°C° 0 mm 1 mps 729 mmHg 65%
    16:00 +9°C° 0 mm 1 mps 728 mmHg 69%
    17:00 +8°C° 0 mm 1 mps 728 mmHg 74%
    18:00 +8°C° 0 mm 1 mps 728 mmHg 72%
    19:00 +8°C° 0 mm 1 mps 728 mmHg 70%
    20:00 +6°C° 0 mm 2 mps 728 mmHg 68%
    21:00 +6°C° 0 mm 2 mps 728 mmHg 66%
    22:00 +6°C° 0 mm 2 mps 728 mmHg 64%
    23:00 +6°C° 0 mm 2 mps 728 mmHg 62%

    Tomorrow, 8 December, Sunday

    Time Temperature Precipitation Wind Pressure Humidity
    00:00 +6°C° 0 mm 2 mps 727 mmHg 60%
    01:00 +6°C° 0 mm 2 mps 727 mmHg 59%
    02:00 +6°C° 0 mm 2 mps 727 mmHg 58%
    03:00 +6°C° 0 mm 2 mps 726 mmHg 57%
    04:00 +6°C° 0 mm 2 mps 726 mmHg 56%
    05:00 +6°C° 0 mm 2 mps 726 mmHg 54%
    06:00 +6°C° 0 mm 2 mps 726 mmHg 54%
    07:00 +6°C° 0 mm 2 mps 726 mmHg 53%
    08:00 +6°C° 0 mm 2 mps 726 mmHg 52%
    09:00 +8°C° 0 mm 2 mps 726 mmHg 50%
    10:00 +10°C° 0 mm 2 mps 726 mmHg 47%
    11:00 +12°C° 0 mm 2 mps 726 mmHg 45%
    12:00 +13°C° 0 mm 2 mps 725 mmHg 44%
    13:00 +13°C° 0 mm 2 mps 724 mmHg 44%
    14:00 +14°C° 0 mm 2 mps 724 mmHg 43%
    15:00 +12°C° 0 mm 2 mps 723 mmHg 48%
    16:00 +9°C° 0 mm 3 mps 723 mmHg 53%
    17:00 +8°C° 0 mm 3 mps 723 mmHg 59%
    18:00 +7°C° 0 mm 3 mps 722 mmHg 57%
    19:00 +7°C° 0 mm 3 mps 722 mmHg 56%
    20:00 +7°C° 0 mm 3 mps 722 mmHg 55%
    21:00 +7°C° 0 mm 3 mps 721 mmHg 54%
    22:00 +5°C° 0 mm 3 mps 721 mmHg 54%
    23:00 +5°C° 0 mm 3 mps 721 mmHg 54%

    Day after tomorrow, 9 December, Monday

    Time Temperature Precipitation Wind Pressure Humidity
    00:00 +5°C° 0 mm 3 mps 720 mmHg 53%
    01:00 +6°C° 0 mm 2 mps 720 mmHg 52%
    02:00 +6°C° 0 mm 2 mps 720 mmHg 51%
    03:00 +6°C° 0 mm 2 mps 719 mmHg 50%
    04:00 +6°C° 0 mm 2 mps 719 mmHg 49%
    05:00 +6°C° 0 mm 2 mps 719 mmHg 48%
    06:00 +6°C° 0 mm 2 mps 719 mmHg 47%
    07:00 +6°C° 0 mm 2 mps 719 mmHg 45%
    08:00 +7°C° 0 mm 1 mps 719 mmHg 43%
    09:00 +9°C° 0 mm 1 mps 719 mmHg 40%
    10:00 +11°C° 0 mm 1 mps 719 mmHg 36%
    11:00 +12°C° 0 mm 0 mps 719 mmHg 33%
    12:00 +13°C° 0 mm 0 mps 719 mmHg 34%
    13:00 +13°C° 0 mm 0 mps 719 mmHg 34%
    14:00 +14°C° 0 mm 0 mps 719 mmHg 34%
    15:00 +13°C° 0 mm 0 mps 719 mmHg 36%
    16:00 +11°C° 0 mm 0 mps 718 mmHg 38%
    17:00 +10°C° 0 mm 0 mps 718 mmHg 39%
    18:00 +10°C° 0 mm 0 mps 719 mmHg 39%
    19:00 +11°C° 0 mm 1 mps 719 mmHg 39%
    20:00 +11°C° 0 mm 1 mps 719 mmHg 38%
    21:00 +10°C° 0 mm 1 mps 719 mmHg 38%
    22:00 +10°C° 0 mm 1 mps 719 mmHg 38%
    23:00 +10°C° 0 mm 1 mps 720 mmHg 38%

    10 December, Tuesday

    Time Temperature Precipitation Wind Pressure Humidity
    00:00 +10°C° 0 mm 1 mps 720 mmHg 38%
    01:00 +10°C° 0 mm 1 mps 720 mmHg 38%
    02:00 +10°C° 0 mm 1 mps 720 mmHg 38%
    03:00 +9°C° 0 mm 2 mps 719 mmHg 38%
    04:00 +9°C° 0 mm 2 mps 719 mmHg 37%
    05:00 +10°C° 0 mm 2 mps 719 mmHg 37%
    06:00 +9°C° 0 mm 2 mps 719 mmHg 39%
    07:00 +9°C° 0 mm 2 mps 720 mmHg 42%
    08:00 +9°C° 0 mm 2 mps 720 mmHg 44%
    09:00 +10°C° 0 mm 2 mps 720 mmHg 43%
    10:00 +13°C° 0 mm 2 mps 720 mmHg 42%
    11:00 +14°C° 0 mm 1 mps 721 mmHg 41%
    12:00 +14°C° 0 mm 1 mps 720 mmHg 42%
    13:00 +14°C° 0 mm 1 mps 720 mmHg 43%
    14:00 +14°C° 0 mm 1 mps 720 mmHg 44%
    15:00 +13°C° 0 mm 1 mps 720 mmHg 48%
    16:00 +12°C° 0 mm 1 mps 720 mmHg 51%
    17:00 +11°C° 0 mm 0 mps 720 mmHg 55%
    18:00 +10°C° 0 mm 0 mps 720 mmHg 56%
    19:00 +10°C° 0 mm 0 mps 720 mmHg 56%
    20:00 +11°C° 0 mm 1 mps 720 mmHg 57%
    21:00 +10°C° 0 mm 0 mps 720 mmHg 58%
    22:00 +10°C° 0 mm 0 mps 720 mmHg 59%
    23:00 +9°C° 0 mm 0 mps 720 mmHg 60%

    11 December, Wednesday

    Time Temperature Precipitation Wind Pressure Humidity
    00:00 +9°C° 0 mm 0 mps 720 mmHg 62%
    01:00 +9°C° 0 mm 0 mps 720 mmHg 63%
    02:00 +9°C° 0 mm 0 mps 720 mmHg 65%
    03:00 +9°C° 0 mm 0 mps 720 mmHg 67%
    04:00 +9°C° 0 mm 0 mps 720 mmHg 68%
    05:00 +10°C° 0 mm 1 mps 720 mmHg 70%
    06:00 +10°C° 0 mm 1 mps 720 mmHg 70%
    07:00 +10°C° 0 mm 1 mps 720 mmHg 70%
    08:00 +10°C° 0 mm 1 mps 720 mmHg 70%
    09:00 +10°C° 0 mm 1 mps 720 mmHg 67%
    10:00 +11°C° 0 mm 1 mps 720 mmHg 63%
    11:00 +12°C° 0 mm 1 mps 720 mmHg 60%
    12:00 +12°C° 0 mm 1 mps 720 mmHg 58%
    13:00 +13°C° 0 mm 1 mps 719 mmHg 56%
    14:00 +13°C° 0 mm 1 mps 719 mmHg 53%
    15:00 +12°C° 0 mm 1 mps 719 mmHg 57%
    16:00 +11°C° 0 mm 1 mps 719 mmHg 62%
    17:00 +11°C° 0 mm 1 mps 719 mmHg 66%
    18:00 +10°C° 0 mm 1 mps 719 mmHg 67%
    19:00 +10°C° 0 mm 1 mps 719 mmHg 68%
    20:00 +9°C° 0 mm 1 mps 719 mmHg 69%
    21:00 +9°C° 0 mm 1 mps 719 mmHg 69%
    22:00 +9°C° 0 mm 1 mps 718 mmHg 68%
    23:00 +9°C° 0 mm 1 mps 718 mmHg 68%

    12 December, Thursday

    Time Temperature Precipitation Wind Pressure Humidity
    00:00 +9°C° 0 mm 1 mps 718 mmHg 68%
    01:00 +9°C° 0 mm 1 mps 718 mmHg 68%
    02:00 +8°C° 0 mm 1 mps 718 mmHg 67%
    03:00 +8°C° 0 mm 1 mps 718 mmHg 67%
    04:00 +8°C° 0 mm 1 mps 718 mmHg 67%
    05:00 +8°C° 0 mm 1 mps 717 mmHg 66%
    06:00 +8°C° 0 mm 1 mps 717 mmHg 66%
    07:00 +8°C° 0 mm 1 mps 717 mmHg 65%
    08:00 +7°C° 0 mm 1 mps 718 mmHg 64%
    09:00 +9°C° 0 mm 1 mps 718 mmHg 58%
    10:00 +11°C° 0 mm 1 mps 718 mmHg 53%
    11:00 +11°C° 0 mm 0 mps 718 mmHg 47%
    12:00 +13°C° 0 mm 1 mps 717 mmHg 46%
    13:00 +13°C° 0 mm 1 mps 717 mmHg 45%
    14:00 +14°C° 0 mm 1 mps 717 mmHg 44%
    15:00 +13°C° 0 mm 1 mps 717 mmHg 51%
    16:00 +11°C° 0 mm 1 mps 717 mmHg 58%
    17:00 +10°C° 0 mm 1 mps 717 mmHg 64%
    18:00 +10°C° 0 mm 1 mps 717 mmHg 66%
    19:00 +8°C° 0 mm 0 mps 718 mmHg 68%
    20:00 +8°C° 0 mm 0 mps 718 mmHg 70%
    21:00 +7°C° 0 mm 0 mps 718 mmHg 72%
    22:00 +7°C° 0 mm 0 mps 718 mmHg 73%
    23:00 +7°C° 0 mm 0 mps 719 mmHg 75%
    Show more